Regional Weather Roundup
Issued by NWS

Home | Current Version | Previous Version | Text Only | Print | Product List | Glossary On
Versions: 1 2 3 4 5 6 7 8 9 10 11 12 13 14 15 16 17 18 19 20 21 22 23 24 25 26 27 28 29 30 31 32 33 34 35 36 37 38 39 40 41 42 43 44 45 46 47 48 49 50
670
ASUS44 KFWD 111315
RWRTX
NORTH TEXAS HOURLY WEATHER ROUNDUP
NATIONAL WEATHER SERVICE FORT WORTH TX
700 AM CST THU FEB 11 2016

NOTE: "FAIR" INDICATES FEW OR NO CLOUDS BELOW 12,000 FEET WITH NO
SIGNIFICANT WEATHER AND/OR OBSTRUCTIONS TO VISIBILITY.

TXZ118-119-111400-
DALLAS/FORT WORTH METROPLEX

CITY           SKY/WX    TMP DP  RH WIND       PRES   REMARKS
DFW AIRPORT    PTCLDY    45  30  55 CALM      30.07R
DALLAS LOVE    PTCLDY    46  33  60 S3        30.08R
FTW MEACHAM    CLEAR     57  28  33 W7        30.07R
DAL-EXECUTIVE  CLEAR     53  29  39 CALM      30.07R
FTW-ALLIANCE   PTCLDY    43  28  55 CALM      30.07R
FTW-NAS-JRB    CLEAR     56  29  35 NW6       30.07R
FTW-SPINKS     CLEAR     52  30  43 S3        30.08R
ARLINGTON      CLEAR     41  33  73 CALM      30.08R
ADDISON        CLEAR     46  32  57 S3        30.08R
MESQUITE       CLEAR     43  34  70 CALM      30.09R
LANCASTER      CLEAR     40  31  68 CALM      30.09R
$$

TXZ091>094-102>105-117-120-121-131>134-111400-
NORTH CENTRAL TEXAS

CITY           SKY/WX    TMP DP  RH WIND       PRES   REMARKS
SHRMAN/DENISON CLEAR     44  31  60 W5        30.07R
GAINESVILLE    CLEAR     46  28  48 W5        30.09R
BOWIE          PTCLDY    45  28  52 NW7       30.07R
BRIDGEPORT     CLEAR     51  32  48 W3        30.10R
DECATUR        CLEAR     51  25  36 W9        30.07R
DENTON         CLEAR     45  29  53 CALM      30.07R
MCKINNEY       CLEAR     39  32  76 CALM      30.07R
GREENVILLE     CLEAR     41  32  70 CALM      30.08R
ROCKWALL       CLEAR     46  34  64 S3        30.07R
TERRELL        CLEAR     42  33  70 S7        30.09R WCI  38
WAXAHACHIE     CLEAR     51  33  50 SW8       30.08S
CLEBURNE       CLEAR     54  28  37 CALM      30.09S
GRANBURY       CLEAR     58  28  32 CALM      30.08R
$$

TXZ083>090-098>101-113>116-127>130-139>142-154-155-111400-
WESTERN NORTH TEXAS

CITY           SKY/WX    TMP DP  RH WIND       PRES   REMARKS
WICHITA FALLS  CLEAR     41  28  60 N7        30.08R WCI  36
WF-KICKAPOO    CLEAR     48  27  44 N5        30.10R
VERNON         CLOUDY    44  26  51 N8        30.11R WCI  39
ABILENE        CLEAR     56  26  31 SW12      30.08R
ABILENE-DYESS  CLEAR     57  26  30 S13       30.07R
BRECKENRIDGE   CLEAR     53  26  34 NW7       30.09R
GRAHAM         CLEAR     41  28  58 CALM      30.07S
MINERAL WELLS  CLEAR     43  28  55 N6        30.07R WCI  39
STEPHENVILLE   CLEAR     55  26  33 SW6       30.11S
COMANCHE       CLEAR     58  29  33 SW17      30.09S
BROWNWOOD      CLEAR     32  25  74 CALM      30.13S
COLEMAN        CLEAR     47  26  42 CALM      30.12R
$$

TXZ143>147-156>162-174-175-111400-
CENTRAL TEXAS

CITY           SKY/WX    TMP DP  RH WIND       PRES   REMARKS
WACO           CLEAR     40  32  73 CALM      30.10R
WACO-TSTC      CLEAR     41  34  75 S5        30.11  WCI  38
WACO-MCGREGOR  CLEAR     45  32  60 S8        30.10R
HILLSBORO      CLEAR     44  30  57 S7        30.09R WCI  40
CORSICANA      CLEAR     50  36  58 S9        30.10R
MEXIA          CLEAR     47  36  64 S14       30.10S
HEARNE         CLEAR     46  36  67 CALM      30.14S
CAMERON        CLEAR     53  35  50 SW10      30.12S
TEMPLE         CLEAR     46  33  60 S6        30.12R
KILLEEN        CLEAR     57  28  33 SW12      30.10R
KILLEEN-SKYLRK CLEAR     51  30  44 S6        30.11R
FORT HOOD      CLEAR     54  28  37 SW5       30.09R
GATESVILLE     CLEAR     50  30  46 CALM      30.12S
HAMILTON       CLEAR     56  29  34 W7        30.11R
LAMPASAS       CLEAR     53  31  43 SW7       30.11R
$$

TXZ095>097-106>112-122>126-135>138-148>153-164>167-111400-
EAST TEXAS

CITY           SKY/WX    TMP DP  RH WIND       PRES   REMARKS
PARIS          CLEAR     43  30  61 W8        30.05R WCI  38
SULPHUR SPRNGS CLEAR     48  35  61 SW10      30.08S
MOUNT PLEASANT CLEAR     54  34  47 SW7       30.08S
GILMER           N/A    N/A N/A N/A MISG        N/A
MINEOLA        CLEAR     54  36  50 S6        30.09R
TYLER          CLEAR     54  37  52 SW10      30.08S
LONGVIEW       CLEAR     51  38  60 SW8       30.07S
MARSHALL       CLEAR     50  39  66 S6        30.09S
ATHENS         CLEAR     45  36  70 S3        30.09S
PALESTINE      CLEAR     47  39  75 CALM      30.13R
JACKSONVILLE   CLEAR     52  38  60 SW7       30.12S
HENDERSON      CLEAR     52  38  57 SW6       30.11S
CENTER         FAIR      52  41  66 MISG      30.11S
NACOGDOCHES    CLEAR     48  37  66 SW7       30.13R
LUFKIN         CLEAR     38  37  97 CALM      30.14R
$$

SUPPLEMENTAL OBSERVATIONS (CENTRAL)

CITY           SKY/WX    TMP DP  RH WIND       PRES   REMARKS
LAKE TEXOMA      N/A     52  32  46 NW7         N/A
CADDO GRASSLND   N/A     48  32  53 SW2         N/A
PAT MAYSE LAKE   N/A     48  36  61 S5          N/A
GREENVILLE       N/A     46  34  61 S6          N/A
CEDAR HILL       N/A     48  32  53 W2          N/A
LAKE LIMESTONE   N/A     46  37  71 S3          N/A
MCGREGOR         N/A     39  32  75 SW5         N/A  WCI  36
TEMPLE           N/A     46  32  57 SW1         N/A
$$

SUPPLEMENTAL OBSERVATIONS (WEST)

CITY           SKY/WX    TMP DP  RH WIND       PRES   REMARKS
MILLERS CREEK    N/A     37  28  70 W6          N/A  WCI  33
POSSUM KINGDOM   N/A     52  21  30 NW5         N/A
LBJ GRASSLAND    N/A     48  28  46 W3          N/A
GRANBURY         N/A     55  27  33 NW3         N/A
COMANCHE         N/A     57  27  30 SW18G24     N/A
HAMBY            N/A     48  27  43 S5          N/A
IVIE RESERVOIR   N/A     46  30  53 N9          N/A
COLORADO BEND    N/A     54  28  37 W6          N/A
$$

SUPPLEMENTAL OBSERVATIONS (EAST)

CITY           SKY/WX    TMP DP  RH WIND       PRES   REMARKS
TEXARKANA        N/A     48  36  61 CALM        N/A
LUFKIN           N/A     39  36  87 MISG        N/A
N SABINE NF      N/A     52  43  71 MISG        N/A
S SABINE NF      N/A     46  43  87 S3          N/A
$$

SUPPLEMENTAL OBSERVATIONS ARE A COLLECTION OF AUTOMATED INSTRUMENTS
THAT ARE MAINTAINED BY A VARIETY OF FEDERAL AND STATE AGENCIES.
CERTAIN ELEMENTS...SUCH AS HUMIDITY VALUES AND SUSTAINED WIND
SPEEDS...MAY BE APPROXIMATED.





USA.gov is the U.S. government's official web portal to all federal, state and local government web resources and services.